Startseite
Über Mich
AHP4
Galerie
Sehschlangen
Tourenbuch
Bookmarks
Elektronik
Bewertung
Geschichten
[Tagesmessung] [Jahreswerte] [Information]

Messwerte vom 15.04.2022

Die letzten Messwerte von 23:58:46 Uhr:
KategorieMesswert
Temperatur [°C]7
Luftdruck [mBar]1014
Sonneneinstrahlung0
Wind [km/h]3 aus Nord
Niederschlag [l/m²]0
rel.Luftfeucht.95.6%
CO2 [ppm]618

Diagramme
Messwerte vom 15.04.2022
Tagesaggregation
KategorieMinimumMaximumSchnittSumme
Temperatur [°C]6128.7354
Luftdruck [mBar]100610151009.4813
Sonneneinstrahlung230102.4729
Wind [km/h]18
rF [%]79.796.691.89
Niederschlag [l/m²]0
CO2 [ppm]401689519.2
Einordnung alsVegetationstag

Messungen an benachbarten Tagen: Zur Jahresaggregation 2022
Tabelle aller Messwerte
UhrzeitTemperatur [°C]Luftdruck [mBar]SonneWind [km/h]RichtungRegen [l/m²]rF [%]CO2 [ppm]
00:01:48 8 1006 0 0 W 0 96.6 654
00:04:49 8 1006 0 3 NO 0 96.6 660
00:07:48 9 1006 0 1 W 0 96.6 669
00:10:48 9 1006 0 2 NW 0 96.6 677
00:13:50 9 1006 0 2 NW 0 96.6 680
00:16:46 9 1006 0 4 0 96.6 681
00:19:48 9 1006 0 6 NW 0 96.6 677
00:22:49 9 1006 0 5 NW 0 96.6 677
00:25:47 9 1006 0 4 NO 0 96.6 673
00:28:46 9 1006 0 6 W 0 96.6 659
00:31:49 9 1006 0 9 NW 0 96.6 660
00:34:46 9 1006 0 4 NW 0 96.6 671
00:37:49 9 1006 0 0 SO 0 96.6 681
00:40:49 9 1006 0 0 NW 0 96.6 689
00:43:48 9 1006 0 3 NO 0 96.6 686
00:46:47 9 1006 0 0 NO 0 96.6 687
00:49:49 9 1006 0 0 SO 0 96.6 683
00:52:47 9 1006 0 0 SW 0 96.6 681
00:55:48 9 1006 0 0 W 0 96.6 683
00:58:47 8 1006 0 0 W 0 96.6 682
01:01:46 8 1006 0 3 W 0 96.6 672
01:04:48 8 1006 0 2 S 0 96.6 665
01:07:48 8 1006 0 3 W 0 96.6 661
01:10:46 8 1006 0 0 S 0 96.6 668
01:13:47 8 1006 0 0 W 0 96.6 661
01:16:45 8 1006 0 0 W 0 96.6 664
01:19:46 8 1006 0 0 W 0 96.6 662
01:22:45 8 1006 0 0 W 0 96.6 659
01:25:47 8 1006 0 0 W 0 96.6 668
01:28:46 8 1006 0 1 W 0 96.6 662
01:31:49 8 1006 0 0 W 0 96.6 654
01:34:46 8 1006 0 1 SW 0 96.6 656
01:37:46 8 1006 0 1 SW 0 96.6 656
01:40:46 8 1006 0 1 SW 0 96.6 656
01:43:47 8 1006 0 4 SW 0 96.6 659
01:46:46 7 1006 0 3 W 0 96.6 662
01:49:47 7 1006 0 3 W 0 96.6 668
01:52:47 7 1006 0 2 S 0 96.6 671
01:55:46 7 1006 0 4 NW 0 96.6 659
01:58:46 7 1006 0 6 W 0 96.6 667
02:01:46 7 1006 0 3 W 0 96.6 664
02:04:47 7 1006 0 5 W 0 96.6 672
02:07:49 7 1006 0 9 NW 0 96.6 668
02:10:48 7 1006 0 2 NW 0 96.6 668
02:13:49 7 1006 0 6 W 0 96.6 662
02:16:46 7 1006 0 5 W 0 96.6 663
02:19:46 7 1006 0 7 W 0 96.6 668
02:22:48 7 1006 0 5 NW 0 96.6 670
02:25:48 7 1006 0 9 W 0 96.6 665
02:28:48 7 1006 0 10 W 0 96.6 662
02:31:48 7 1006 0 14 NW 0 96.6 659
02:34:47 7 1006 0 7 W 0 96.6 662
02:37:47 7 1006 0 13 NW 0 96.6 653
02:40:46 7 1006 0 10 W 0 96.6 653
02:43:46 7 1006 0 7 W 0 96.6 647
02:46:45 7 1006 0 4 N 0 96.6 647
02:49:47 7 1006 0 6 NW 0 96.6 646
02:52:47 7 1006 0 4 SW 0 96.6 651
02:55:48 7 1006 0 7 NW 0 96.6 647
02:58:47 7 1006 0 6 N 0 96.6 651
03:01:48 7 1006 0 9 NW 0 96.6 647
03:04:45 7 1006 0 8 W 0 96.6 653
03:07:47 7 1006 0 5 N 0 96.6 656
03:10:47 7 1006 0 4 NW 0 96.6 655
03:13:48 7 1006 0 16 NW 0 96.6 653
03:16:45 7 1006 0 4 W 0 96.6 638
03:19:46 7 1006 0 6 W 0 96.6 639
03:22:48 7 1006 0 10 W 0 96.6 635
03:25:46 7 1006 0 6 SO 0 96.6 644
03:29:48 7 1006 0 5 W 0 96.6 642
03:31:48 7 1006 0 4 SW 0 96.6 632
03:34:46 7 1006 0 6 W 0 96.6 633
03:37:48 7 1006 0 1 S 0 96.6 629
03:40:47 7 1006 0 5 S 0 96.6 630
03:43:47 7 1006 0 7 NW 0 96.6 635
03:46:47 7 1006 0 3 NW 0 96.6 639
03:49:49 7 1006 0 4 SW 0 96.6 645
03:52:46 7 1006 0 3 N 0 96.6 644
03:55:46 7 1006 0 4 W 0 96.6 648
03:58:46 7 1006 0 8 S 0 96.6 649
04:01:47 7 1006 0 3 S 0 96.6 650
04:04:47 7 1006 0 4 W 0 96.6 639
04:07:51 7 1006 0 7 NW 0 96.6 648
04:10:47 7 1006 0 3 S 0 96.6 650
04:13:48 7 1006 0 6 W 0 96.6 652
04:16:46 7 1006 0 5 NW 0 96.6 656
04:19:47 7 1006 0 4 SW 0 96.6 656
04:22:46 7 1006 0 6 W 0 96.6 656
04:25:45 7 1006 0 3 S 0 96.6 647
04:28:46 7 1007 0 6 W 0 96.6 642
04:31:47 7 1006 0 3 SW 0 96.6 647
04:34:47 7 1006 0 5 W 0 96.6 646
04:37:48 7 1007 0 2 SW 0 96.6 652
04:40:49 7 1006 0 5 SW 0 96.6 653
04:43:49 7 1006 0 7 SW 0 96.6 658
04:46:48 7 1006 0 2 SW 0 96.6 651
04:49:47 7 1006 0 3 SW 0 96.6 649
04:52:49 7 1006 0 3 W 0 96.6 642
04:55:47 7 1006 0 5 SW 0 96.6 646
04:58:47 7 1006 0 4 W 0 96.6 650
05:01:45 7 1007 0 5 W 0 96.6 658
05:04:48 7 1006 0 2 NW 0 96.6 658
05:07:47 7 1006 0 4 SW 0 96.6 647
05:10:48 7 1006 0 5 W 0 96.6 645
05:13:46 7 1006 0 6 S 0 96.6 642
05:16:48 7 1006 0 6 SW 0 96.6 647
05:19:48 7 1006 0 3 NW 0 96.6 644
05:22:47 7 1006 0 4 W 0 96.6 663
05:25:47 7 1006 0 5 W 0 96.6 657
05:28:47 7 1006 0 4 SW 0 96.6 651
05:31:47 7 1006 0 3 W 0 96.6 642
05:34:48 7 1006 0 0 SW 0 96.6 650
05:37:48 7 1006 0 3 NW 0 96.6 654
05:40:49 7 1006 0 5 W 0 96.6 654
05:43:47 7 1006 0 4 W 0 96.6 658
05:46:48 7 1006 0 3 SW 0 96.6 653
05:49:45 7 1006 0 5 W 0 96.6 647
05:52:46 7 1006 0 5 W 0 96.6 643
05:55:47 7 1006 0 4 NW 0 96.6 642
05:58:48 7 1006 0 2 SW 0 96.6 650
06:01:48 7 1006 0 2 W 0 96.6 650
06:04:47 7 1006 3 3 W 0 96.6 652
06:07:45 7 1006 5 1 S 0 96.6 654
06:10:48 7 1006 8 3 S 0 96.6 656
06:13:49 7 1007 10 2 SW 0 96.6 650
06:16:48 7 1006 15 3 SW 0 96.6 650
06:19:51 7 1007 17 5 NW 0 96.6 653
06:22:47 7 1006 24 4 W 0 96.6 659
06:25:48 7 1006 31 2 SW 0 96.6 649
06:28:47 7 1007 40 2 W 0 96.6 651
06:31:47 7 1006 41 6 NW 0 96.6 646
06:34:47 7 1006 48 1 S 0 96.6 648
06:37:49 7 1006 52 2 W 0 96.6 641
06:40:47 7 1007 57 1 SW 0 96.6 642
06:43:47 7 1007 58 2 W 0 96.6 642
06:46:46 7 1007 59 3 S 0 96.6 649
06:49:47 7 1007 65 3 SW 0 96.6 647
06:52:48 7 1007 68 6 W 0 96.6 641
06:55:46 7 1006 64 5 W 0 96.6 635
06:58:47 7 1007 63 6 W 0 96.6 637
07:01:48 7 1006 62 4 NW 0 96.6 650
07:04:50 7 1007 62 8 NW 0 96.6 651
07:07:49 7 1007 59 9 NW 0 96.6 647
07:10:49 7 1008 70 6 NW 0 96.6 635
07:13:46 7 1007 39 6 N 0 96.6 413
07:16:49 7 1007 58 8 NW 0 96.6 405
07:19:48 7 1008 111 10 W 0 96.6 407
07:22:49 7 1007 120 15 W 0 96.6 405
07:25:46 6 1008 127 7 0 96.6 404
07:28:46 6 1008 134 7 W 0 96.6 404
07:31:48 6 1007 155 6 W 0 96.6 407
07:34:46 7 1008 153 6 W 0 96.6 407
07:37:48 7 1008 157 6 NW 0 96.6 404
07:40:49 7 1008 162 4 W 0 96.6 404
07:43:48 7 1008 158 5 W 0 96.6 404
07:46:47 7 1008 169 2 W 0 96.6 405
07:49:49 7 1007 168 2 W 0 96.6 407
07:52:46 7 1008 165 5 W 0 96.6 407
07:55:47 7 1009 171 1 W 0 96.6 404
07:58:48 7 1008 178 3 W 0 96.6 405
08:01:48 7 1008 183 3 S 0 96.6 407
08:04:47 7 1007 186 5 W 0 96.6 404
08:07:48 7 1008 180 0 N 0 96.6 407
08:10:49 7 1008 177 5 SW 0 96.6 419
08:13:48 7 1008 178 5 W 0 96.6 422
08:16:49 7 1008 181 4 W 0 96.6 425
08:19:52 7 1008 180 3 SW 0 96.6 427
08:22:49 7 1008 178 5 SW 0 96.6 416
08:25:47 7 1008 176 0 S 0 96.6 418
08:28:49 7 1008 184 2 SW 0 96.6 419
08:31:49 7 1008 197 0 SO 0 96.6 415
08:34:47 7 1008 195 5 W 0 96.6 415
08:37:48 8 1008 197 1 O 0 96.6 415
08:40:49 8 1008 203 4 W 0 96.6 413
08:43:47 8 1009 205 6 W 0 96.6 404
08:46:47 8 1008 207 9 S 0 96.6 404
08:49:47 8 1008 206 3 W 0 96.6 407
08:52:51 9 1009 209 4 NW 0 96.6 407
08:55:50 9 1008 209 7 NW 0 96.6 404
08:58:49 9 1008 210 4 NW 0 96.6 407
09:01:50 9 1009 207 13 NW 0 96.3 407
09:04:48 8 1009 204 14 NW 0 95.8 407
09:07:49 8 1009 202 8 NW 0 95.4 407
09:10:51 8 1009 203 16 NW 0 95.6 404
09:13:50 8 1009 205 9 NW 0 95 407
09:16:49 8 1009 201 10 NW 0 95.1 401
09:19:48 8 1008 205 5 W 0 95.8 405
09:22:50 9 1009 208 3 NW 0 96.3 407
09:25:49 9 1008 209 5 S 0 95.8 405
09:28:51 9 1009 210 11 NW 0 94.7 407
09:31:48 9 1009 204 9 W 0 94.2 407
09:34:50 9 1009 208 8 SW 0 94.8 404
09:37:49 9 1009 215 3 SW 0 94.9 404
09:40:49 9 1009 215 8 W 0 94.7 404
09:43:48 9 1009 212 4 SW 0 93.9 405
09:46:50 9 1009 216 10 NW 0 93.5 401
09:49:48 9 1009 218 5 W 0 92.6 408
09:52:48 9 1009 218 3 W 0 93.2 404
09:55:49 10 1009 219 9 SW 0 92.7 405
09:58:48 10 1009 216 11 W 0 92.6 407
10:01:50 10 1009 215 5 SW 0 91.9 405
10:04:47 10 1009 211 6 W 0 91.2 404
10:07:46 10 1009 216 6 W 0 91.1 407
10:10:49 10 1009 212 6 NW 0 92 407
10:13:47 10 1009 216 9 SW 0 90.5 407
10:16:48 10 1009 220 4 NW 0 90 404
10:19:49 10 1009 218 6 W 0 90.4 407
10:22:49 10 1009 208 16 NW 0 89.2 406
10:25:49 10 1010 200 12 NW 0 87.8 407
10:28:49 10 1009 207 7 W 0 89.1 404
10:31:48 9 1009 215 3 SW 0 90.3 404
10:34:48 10 1010 212 17 W 0 90.5 404
10:37:48 10 1009 215 11 W 0 90.1 407
10:40:51 10 1009 220 6 NW 0 90.4 404
10:43:50 10 1010 216 10 NW 0 90.7 404
10:46:47 10 1010 212 10 W 0 89.6 404
10:49:47 10 1010 213 7 NW 0 88.2 407
10:52:48 10 1010 218 9 W 0 88 404
10:55:46 10 1009 218 5 W 0 88.4 404
10:58:51 10 1009 205 10 NW 0 87.8 407
11:01:47 9 1010 207 9 W 0 87.9 407
11:04:50 9 1009 213 4 NW 0 88.1 407
11:07:48 9 1009 215 14 NW 0 88.1 409
11:10:49 9 1010 218 10 S 0 88.2 404
11:13:49 10 1010 215 3 W 0 89.4 406
11:16:47 10 1010 223 3 SW 0 89.9 404
11:19:48 10 1010 225 8 NW 0 90 407
11:22:48 11 1009 226 4 W 0 88.9 408
11:25:49 11 1010 224 16 NW 0 87.6 407
11:28:50 11 1010 226 0 NW 0 85.5 407
11:31:48 11 1010 226 6 NW 0 85.4 407
11:34:50 12 1010 225 11 NW 0 83.5 405
11:37:48 12 1010 228 11 W 0 82.7 404
11:40:49 12 1010 229 9 NW 0 80.8 405
11:43:49 12 1010 226 12 SO 0 80.2 406
11:46:47 12 1010 223 12 W 0 81.6 407
11:49:50 12 1010 226 8 NW 0 81.6 407
11:52:50 12 1010 223 12 W 0 80.5 404
11:55:49 11 1010 221 9 NW 0 79.9 407
11:58:48 11 1010 225 6 W 0 80.7 406
12:01:52 11 1009 218 5 W 0 81.6 408
12:04:47 11 1010 216 6 W 0 82 406
12:07:47 11 1010 214 4 W 0 81.9 401
12:10:47 11 1010 214 4 NW 0 81.3 407
12:13:48 11 1010 207 7 N 0 82.6 407
12:16:47 11 1010 209 10 W 0 81.7 404
12:19:47 10 1010 208 11 W 0 82.5 406
12:22:47 10 1010 211 9 0 83.7 407
12:25:48 10 1010 214 2 SW 0 83.9 404
12:28:48 10 1010 214 3 N 0 84.2 404
12:31:46 11 1010 219 5 W 0 84.5 407
12:34:47 11 1010 218 6 W 0 84.6 407
12:37:48 11 1010 220 2 0 83.8 407
12:40:48 12 1010 217 7 W 0 82.9 407
12:43:48 12 1010 217 10 NW 0 82.6 407
12:46:46 12 1010 219 2 N 0 81.6 407
12:49:47 11 1009 224 13 W 0 81.1 404
12:52:48 11 1010 230 3 0 81 407
12:55:48 12 1010 218 4 O 0 81.4 405
12:58:48 12 1010 215 10 SW 0 81.7 404
13:01:48 12 1010 222 10 W 0 81.4 404
13:04:46 12 1010 206 6 W 0 81 407
13:07:46 11 1010 203 5 O 0 81.4 406
13:10:47 11 1010 204 9 W 0 80.8 401
13:13:47 11 1010 193 4 NW 0 80.5 406
13:16:47 11 1010 195 9 O 0 82.2 407
13:19:49 11 1010 207 7 W 0 82 407
13:22:50 11 1010 214 8 NW 0 83.8 407
13:25:45 11 1010 214 4 N 0 84.6 404
13:28:52 11 1010 218 6 NW 0 83.4 407
13:31:48 11 1010 220 9 N 0 82.6 404
13:34:45 11 1010 211 3 0 81.6 407
13:37:45 11 1010 217 11 N 0 81.7 404
13:40:47 11 1010 222 6 0 80.2 404
13:43:48 11 1010 222 9 W 0 81.6 407
13:46:49 11 1010 212 18 NW 0 82.2 407
13:49:50 11 1010 212 9 N 0 82.2 404
13:52:47 11 1010 207 5 N 0 82.1 404
13:55:49 11 1010 210 8 NW 0 81.6 404
13:58:49 11 1010 213 12 O 0 81.2 407
14:01:50 11 1010 213 6 NW 0 81.4 401
14:04:48 11 1010 212 3 N 0 81.6 407
14:07:50 11 1010 218 12 NW 0 81.2 418
14:10:50 11 1010 211 6 W 0 80.7 422
14:13:47 11 1010 216 6 NW 0 81.1 413
14:16:48 11 1010 207 3 N 0 80.2 410
14:19:47 11 1010 211 4 NW 0 79.8 409
14:22:47 11 1010 204 8 NW 0 79.7 412
14:25:48 11 1010 216 12 NW 0 80.7 410
14:28:46 11 1010 216 9 W 0 80.3 410
14:31:47 11 1010 207 5 W 0 81.4 412
14:34:51 11 1010 205 7 NW 0 82 416
14:37:47 11 1010 199 4 NW 0 81.7 416
14:40:48 11 1010 199 8 NW 0 82.4 410
14:43:49 11 1010 180 7 NW 0 83 410
14:46:48 11 1010 196 5 NW 0 83.5 409
14:49:49 11 1010 215 3 NO 0 84.4 416
14:52:46 11 1010 214 7 N 0 84.3 410
14:55:48 11 1010 213 4 NW 0 83.2 406
14:58:47 11 1010 208 9 W 0 82.4 407
15:01:49 11 1010 201 7 NW 0 81.4 404
15:04:48 11 1010 207 16 N 0 82.6 410
15:07:51 11 1010 209 5 NW 0 82.8 407
15:10:48 11 1010 202 12 NO 0 83.5 404
15:13:50 11 1010 190 12 NW 0 83 404
15:16:46 11 1010 184 12 0 83.1 408
15:19:47 10 1010 186 4 NO 0 83.8 407
15:22:50 10 1010 190 5 W 0 85.1 406
15:25:47 10 1010 190 10 N 0 85 407
15:28:49 10 1010 191 11 N 0 84.7 407
15:31:47 10 1010 190 15 N 0 84.1 407
15:34:47 10 1010 188 14 W 0 84 405
15:37:50 10 1010 183 7 NW 0 84.4 407
15:40:48 10 1010 183 8 N 0 84.4 404
15:43:50 10 1010 184 7 NW 0 84.2 407
15:46:49 10 1010 187 4 N 0 84.2 404
15:49:48 10 1010 204 5 0 84.3 405
15:52:47 10 1010 208 8 O 0 84.4 404
15:55:47 11 1010 204 5 W 0 84.5 407
15:58:51 11 1011 204 13 N 0 84.1 404
16:01:48 11 1011 203 5 N 0 84.1 404
16:04:49 11 1011 207 6 NW 0 84 407
16:07:49 11 1011 203 4 N 0 83.5 404
16:10:48 11 1011 186 1 NO 0 83.2 407
16:13:47 11 1010 182 3 W 0 83.2 407
16:16:51 11 1011 179 5 NW 0 83.6 405
16:19:49 11 1011 180 6 N 0 85.3 407
16:22:46 11 1011 183 0 N 0 85.8 404
16:25:48 10 1011 182 2 W 0 86.1 404
16:28:47 10 1011 188 7 N 0 85.9 407
16:31:48 10 1010 189 6 N 0 85.9 404
16:34:47 10 1010 191 2 0 86.2 407
16:37:49 10 1012 184 3 NW 0 86.4 404
16:40:49 10 1011 184 8 NW 0 86.1 404
16:43:48 10 1010 182 12 NW 0 86.4 407
16:46:50 10 1011 186 6 NW 0 86.9 404
16:49:47 10 1010 193 3 NW 0 87.3 407
16:52:50 10 1011 194 9 NW 0 87.9 404
16:55:47 10 1012 198 7 O 0 88 407
16:58:48 10 1011 200 14 W 0 88.5 406
17:01:48 10 1011 200 7 N 0 88.5 407
17:04:48 10 1011 204 8 0 88.7 407
17:07:50 10 1011 202 7 N 0 88.2 407
17:10:49 10 1011 195 10 N 0 88.1 405
17:13:49 10 1011 191 8 NO 0 88 405
17:16:47 10 1012 183 4 N 0 88 404
17:19:47 10 1012 180 3 SW 0 88.4 407
17:22:49 10 1011 180 3 N 0 89 406
17:25:47 10 1012 186 9 S 0 89.6 404
17:28:49 10 1011 187 3 NW 0 90.1 407
17:31:48 10 1011 189 6 NW 0 90.2 407
17:34:46 10 1011 194 4 N 0 90.5 404
17:37:47 10 1011 202 4 SW 0 90.5 407
17:40:48 10 1011 195 6 N 0 90.7 404
17:43:46 10 1011 202 10 N 0 90.9 406
17:46:50 10 1012 198 2 O 0 91 404
17:49:46 10 1011 203 7 N 0 91.1 407
17:52:47 10 1012 184 7 N 0 90.7 407
17:55:49 10 1012 183 3 NW 0 90.8 404
17:58:47 10 1012 171 7 W 0 91 407
18:01:47 9 1012 156 5 NO 0 91.4 404
18:04:46 9 1012 153 10 W 0 91.9 403
18:07:51 9 1012 165 8 NW 0 92.4 405
18:10:50 9 1012 157 9 NW 0 92.9 406
18:13:49 9 1012 150 6 W 0 93.2 407
18:16:48 9 1012 160 5 NW 0 93.2 404
18:19:48 9 1012 166 1 N 0 93.1 407
18:22:50 9 1012 153 6 NW 0 93.1 405
18:25:48 9 1012 160 6 NW 0 93.1 407
18:28:47 9 1011 159 6 W 0 93 407
18:31:47 9 1013 157 5 N 0 92.9 404
18:34:48 9 1012 142 9 NW 0 92.5 404
18:37:48 9 1012 61 11 NW 0 92.2 404
18:40:48 9 1012 144 7 NW 0 92.2 404
18:43:48 9 1012 124 8 W 0 92.4 416
18:46:47 9 1013 118 7 NW 0 92.6 407
18:49:48 9 1012 119 12 N 0 92.7 403
18:52:47 9 1013 121 7 NW 0 92.7 404
18:55:50 9 1012 135 7 NO 0 92.7 405
18:58:47 9 1013 136 5 N 0 92.6 422
19:01:49 9 1013 120 13 N 0 92.5 439
19:04:49 9 1013 130 11 NW 0 92.5 448
19:07:48 9 1013 136 5 NO 0 92.6 454
19:10:50 9 1012 147 6 NW 0 92.6 466
19:13:48 9 1013 137 9 NO 0 92.5 478
19:16:48 9 1013 131 13 O 0 92.4 481
19:19:48 9 1013 136 8 SW 0 92.3 492
19:22:48 9 1013 141 4 NW 0 92.2 495
19:25:47 9 1013 133 6 SO 0 92.2 503
19:28:49 9 1013 127 9 NW 0 92.2 518
19:31:50 9 1013 114 6 NW 0 92.2 527
19:34:48 9 1013 98 5 W 0 92.2 532
19:37:46 9 1013 83 8 N 0 92.3 542
19:40:46 9 1013 68 6 NW 0 92.4 541
19:43:45 9 1012 56 6 0 92.5 541
19:46:47 9 1013 53 4 NO 0 92.6 544
19:49:50 9 1013 44 6 NO 0 92.8 548
19:52:47 9 1013 49 5 NW 0 92.9 557
19:55:46 9 1013 48 4 N 0 92.9 553
19:58:46 9 1013 44 6 W 0 93 550
20:01:50 9 1013 40 12 NW 0 93.1 547
20:04:50 9 1013 32 7 NW 0 93 547
20:07:46 9 1013 29 7 W 0 93.2 547
20:10:48 9 1013 26 17 N 0 93.2 556
20:13:48 9 1013 21 2 NW 0 93.3 559
20:16:46 9 1013 15 9 N 0 93.4 559
20:19:49 9 1013 12 4 N 0 93.3 560
20:22:49 9 1013 8 5 NW 0 93.3 556
20:25:46 9 1013 5 4 O 0 93.5 568
20:28:47 9 1013 3 8 NW 0 93.6 574
20:31:46 9 1013 0 4 0 93.7 583
20:34:45 9 1013 0 5 W 0 93.8 579
20:37:48 9 1013 0 4 NW 0 93.8 580
20:40:48 9 1013 0 3 NW 0 93.7 580
20:43:47 9 1013 0 1 N 0 93.7 583
20:46:45 9 1013 0 4 N 0 94 586
20:49:48 9 1013 0 2 S 0 94.2 592
20:52:47 9 1013 0 3 NW 0 94.2 598
20:55:45 9 1013 0 2 N 0 94.4 597
20:58:46 9 1013 0 6 NW 0 94.3 592
21:01:49 9 1013 0 2 N 0 94.4 601
21:04:48 9 1013 0 2 NO 0 94.4 607
21:07:48 9 1013 0 4 NO 0 94.4 599
21:10:47 9 1013 0 3 NO 0 94.5 607
21:13:45 9 1013 0 1 N 0 94.4 615
21:16:49 9 1013 0 3 SW 0 94.7 616
21:19:45 9 1013 0 0 0 94.4 615
21:22:45 9 1013 0 1 SO 0 93.1 606
21:25:46 8 1013 0 3 O 0 92.3 609
21:28:48 8 1013 0 4 SO 0 92.2 609
21:31:47 8 1013 0 7 NW 0 92.1 603
21:34:48 8 1014 0 4 NO 0 92.3 597
21:37:47 8 1014 0 1 NW 0 92.3 598
21:40:47 8 1014 0 1 NO 0 92.4 605
21:43:49 8 1014 0 2 NO 0 92.6 607
21:46:45 8 1013 0 0 W 0 92.8 612
21:49:46 8 1014 0 3 0 92.5 620
21:52:48 8 1013 0 2 NW 0 92.8 626
21:55:47 8 1013 0 4 NO 0 92.9 627
21:58:50 8 1014 0 5 O 0 92.8 621
22:01:48 8 1013 0 3 NO 0 92.8 627
22:04:47 8 1013 0 3 NO 0 92.9 636
22:07:47 8 1014 0 5 NO 0 93.1 636
22:10:48 8 1013 0 2 SO 0 93.3 633
22:13:47 8 1014 0 7 NW 0 93.3 631
22:16:45 8 1014 0 1 O 0 93.1 620
22:19:47 8 1014 0 1 N 0 93.2 616
22:22:45 8 1013 0 3 0 93.2 623
22:25:46 8 1014 0 5 O 0 93.5 630
22:28:47 8 1014 0 4 NO 0 93.8 628
22:31:48 8 1014 0 1 NO 0 93.9 621
22:34:48 8 1013 0 5 NW 0 94.1 618
22:37:46 8 1014 0 2 W 0 94.3 615
22:40:46 8 1014 0 5 N 0 94.5 624
22:43:45 8 1013 0 6 N 0 94.7 624
22:46:48 7 1014 0 4 SW 0 94.2 627
22:49:48 7 1014 0 5 NO 0 94.1 620
22:52:47 7 1014 0 5 NO 0 93.8 618
22:55:45 7 1014 0 5 NO 0 93.7 621
22:58:50 7 1014 0 2 NW 0 93.9 627
23:01:49 7 1014 0 10 NO 0 94 630
23:04:46 7 1014 0 7 NO 0 94.2 631
23:07:44 7 1014 0 6 O 0 94.4 629
23:10:48 7 1014 0 5 NO 0 94.6 630
23:13:49 7 1014 0 4 NW 0 95 629
23:16:43 7 1014 0 3 N 0 95.1 633
23:19:45 7 1013 0 3 S 0 95.2 636
23:22:49 7 1014 0 5 NO 0 95.4 639
23:25:50 7 1015 0 6 NW 0 95.6 639
23:28:46 7 1014 0 1 O 0 95.6 634
23:31:45 7 1014 0 3 N 0 95.8 631
23:34:46 7 1014 0 2 O 0 95.8 624
23:37:49 7 1014 0 2 NO 0 95.8 618
23:40:46 7 1014 0 5 N 0 95.7 615
23:43:49 7 1014 0 7 N 0 95.8 618
23:46:46 7 1015 0 2 NO 0 95.9 615
23:49:48 7 1014 0 3 NO 0 96 618
23:52:47 7 1014 0 8 NW 0 96.1 617
23:55:47 7 1014 0 2 N 0 95.7 625
23:58:46 7 1014 0 3 N 0 95.6 618

Letzte Änderung : 22-Jul-2022
Copyright Jens Köhler, Wolfsburg, Obere Dorfstraße 10d